Overview Statistics Trail Chart Weather Telemetry Raw packets
 

This is the latest recevied weather packets stored in our database for station/object KBTL-WX. If no packets are shown the sender has not sent any weather packets the latest 10 day(s).

<< 5 6 7 8 9 10 11 >>
Time Temp. Humidity Pressure Rain* Wind** Luminosity Snow
1777800632 2.78° C 65% 980.4 hPa 0 mm - - -
1777799713 2.22° C 65% 980.3 hPa 0 mm - - -
1777798837 2.22° C 65% 980.3 hPa 0 mm - - -
1777797913 2.22° C 60% 980.4 hPa 0 mm - - -
1777797032 2.22° C 64% 980.7 hPa 0 mm - - -
1777796113 1.67° C 64% 980.7 hPa 0 mm - - -
1777795233 1.67° C 63% 980.3 hPa 0 mm - - -
1777794314 1.67° C 66% 980.9 hPa 0 mm - - -
1777793432 1.67° C 66% 980.9 hPa 0 mm - - -
1777792513 1.67° C 66% 980.9 hPa 0 mm - - -
1777791637 1.67° C 66% 980.9 hPa 0 mm - - -
1777790714 1.67° C 64% 981.7 hPa 0 mm - - -
1777789828 2.22° C 62% 981.7 hPa 0 mm - - -
1777788914 2.22° C 62% 981.7 hPa 0 mm - - -
1777788040 2.22° C 62% 981.7 hPa 0 mm - - -
1777787114 2.22° C 63% 982.2 hPa 0 mm - - -
1777785313 1.67° C 64% 982.4 hPa 0 mm - - -
1777784435 2.22° C 64% 982.4 hPa 0 mm - - -
1777783513 2.22° C 61% 982.6 hPa 0 mm - - -
1777782632 2.78° C 58% 982.2 hPa 0 mm - - -
1777781714 2.78° C 58% 982.2 hPa 0 mm - - -
1777780838 2.78° C 58% 982.2 hPa 0 mm - - -
1777779913 2.78° C 53% 983 hPa 0 mm - - -
1777779033 2.78° C 53% 983.4 hPa 0 mm - - -
1777778113 3.33° C 53% 983.4 hPa 0 mm - - -

* Rain latest hour (hover to see other rain measurements)
** Current wind speed in m/s (hover to see current wind gust speed)